CAPE
0 0 0 0 0 0 0 0 0 0 201 283 379 406 350 653 935 1143 1455 1703 1999 1996 2001 1802 1719 1905 1817 1484 2054 2113 2396 2396 2376 1743 1552 1960 2220 2213 3309 2739 3344 3411 3658 3436 3278 2905 3128 3007 3020 2822 2792 2832 3179 3371 2872 2275 3175 3265 4305 4570 3037 3241 2808 2362 2064 2256 3328 2248 3247 1445 1761 1447 1749 2115 1647 1247 663 214 825 1483 984 1005 1248 1544 1479
2 0 0 0 0 0 0 0 0 0 249 144 532 710 841 754 830 920 1341 1702 1894 1873 2203 1921 1984 1736 1719 1454 2123 2489 2189 2082 1957 1560 1686 1548 2893 3305 3424 2962 3291 3442 3479 3272 3227 3094 3267 3217 3201 2884 2606 2995 3821 3400 3388 2895 3519 3239 2919 3724 3238 2420 3231 2024 1770 2491 2708 1743 2422 1638 1786 1666 2081 1730 1488 600 249 178 211 312 705 615 596 616 888
2 23 0 0 0 0 0 0 0 0 53 46 450 610 909 1245 1661 1618 1322 1646 1690 1665 2170 2229 2044 1910 1498 1823 1756 1722 2111 2794 2093 3026 3689 1741 2275 2638 3432 3542 3331 3152 3220 3113 3034 2829 3116 3422 3228 3311 2894 3026 3328 3481 3150 3115 3030 3499 2698 3707 3117 3282 3086 2074 2688 2407 1417 1908 2220 3177 1304 1777 1426 1036 1080 232 77 81 228 334 611 733 650 789 1100
4 44 0 0 0 0 0 0 0 0 151 41 400 688 719 1815 1975 1983 1718 1592 1777 1832 2000 1710 1738 2105 2464 2280 2262 2152 2081 2578 2573 2723 2996 1906 1876 2716 3006 3382 2866 2638 2325 2528 2660 2962 3050 3200 2997 3047 3310 3292 3268 3318 3299 3038 2762 3454 3073 3004 3504 3409 2216 1557 1427 2317 2751 2187 2860 2504 1375 1210 1350 914 806 566 204 152 27 221 343 597 650 1125 1492
86 76 0 4 0 0 0 0 0 0 36 11 456 565 728 1183 1905 2057 1985 1872 1762 1917 2093 2177 2067 2160 2428 2462 2434 2575 2459 2594 2180 1791 2039 2574 1868 2265 2729 2708 2751 2279 2307 2332 2594 3156 3180 3099 3046 3230 3447 3414 3297 3429 3216 2967 3124 2802 3024 3679 3665 3306 1271 1060 1835 1622 2316 2968 4102 3163 1636 2355 2132 1016 603 831 870 402 0 179 1162 222 431 1463 1415
368 204 61 17 1 2 0 0 0 0 0 23 319 463 758 1255 1797 2432 2035 1842 1664 1929 2392 2408 2582 2527 2677 2890 3088 2835 2668 2618 2296 1883 1995 1780 1486 1466 2182 2161 2407 2238 2459 2540 2577 2870 3206 3348 3226 3188 3408 3713 3683 3398 3207 3308 3119 2594 3185 2898 3248 3308 3190 1308 1542 1904 1937 2678 2299 2857 2903 2037 2346 1963 1209 1882 2712 1161 216 225 420 321 209 1048 934
323 278 216 48 21 3 10 0 0 0 0 4 151 386 1095 1548 1809 2218 2096 1995 1906 2077 2671 2454 2597 2573 2314 2287 2663 2705 2935 2835 2901 1836 1921 2911 4694 1665 2115 2442 2745 1758 1942 2201 2454 2985 3288 3447 3522 3354 3335 3538 3657 3673 3420 3086 2372 2373 2366 3718 3290 3348 3277 3842 1594 1137 2074 1818 1694 1272 1189 1860 1729 2255 2176 2668 2554 1883 1915 212 377 268 498 815 889
818 454 369 201 118 17 17 0 0 0 0 4 36 224 1509 2147 2124 2254 2221 2279 1974 2200 2834 2763 2873 2690 2772 2263 2237 2247 2400 2987 2840 2617 2523 3020 2956 1488 1924 2308 2726 2424 2442 3171 2643 2767 3179 3477 3672 3563 3197 2891 3697 3893 3495 2960 2745 3056 2556 3482 4081 4534 3613 3303 2836 1146 1957 3470 2532 2184 1979 1724 1975 1932 2167 2538 3303 2501 1748 605 358 423 566 560 915
826 999 286 213 241 71 68 1 0 0 0 1 1 365 1472 2245 2457 2444 2507 2448 2801 2359 2958 2806 3017 2985 2815 2321 2609 2294 2179 2828 2634 2957 2562 2540 2529 2584 2547 2158 3008 3138 2952 3141 2911 3071 3410 3604 3753 3912 3502 3326 3492 3272 3060 2848 2711 3079 3002 3401 3457 3503 3367 3497 3854 2529 1958 1554 2284 2993 2981 3588 2768 1974 1948 3016 2735 2445 1451 1039 1248 849 439 666 1264
1089 671 1098 426 310 167 213 75 0 4 0 9 0 45 700 1972 2536 2720 2637 2514 2787 2687 2934 2974 3091 3006 2737 2298 2423 2478 2839 3463 2590 3295 3145 2772 2909 2756 3182 3087 2782 3640 3233 3400 3466 3116 3313 3458 3187 3181 3588 3948 2995 2718 2531 3102 3029 3133 3169 3127 3339 2837 4073 2392 1858 2965 2679 2581 2667 3376 3666 3345 3232 2434 1956 1816 1342 1914 1996 896 633 1607 1555 840 1524
1655 1656 1164 561 468 321 367 255 121 112 62 3 0 25 453 1228 2299 2608 2814 2579 2865 3208 2862 2889 3020 2772 2404 2404 2490 2272 2607 3057 3285 3463 3604 3379 3603 3425 3622 3288 2886 3026 2780 3290 3814 2874 3253 3292 2624 2848 2834 3678 3590 3455 2813 2759 2713 2955 3104 3155 3201 3179 2387 3335 2270 2457 2679 2052 2136 3408 3710 2663 2597 3374 2769 2392 2509 1750 2510 1946 562 502 219 1110 908
1158 1558 1413 1084 1444 1304 487 466 336 325 191 138 66 71 601 1205 1999 2539 2805 2904 2865 3174 3019 2493 2548 2476 2300 2498 2705 2602 2509 3095 3439 3190 3420 3154 3340 3514 3913 3642 3537 3055 3052 3041 3129 2632 3484 3477 2952 2913 4419 3831 3451 4992 4507 3406 2587 2680 3290 3614 3438 3084 2982 4211 3549 2417 1792 2438 2111 1829 2256 2292 2943 2323 1575 2081 1760 3318 2271 2659 2659 1000 782 605 844
1320 2524 2036 1603 1392 1339 1615 1126 2382 974 841 619 268 340 628 1348 2228 2334 2743 2800 3058 3235 3363 2908 2571 2453 2466 2535 2721 3087 2749 3279 3330 3414 3472 3370 3331 3340 3941 3744 4062 3575 2895 2937 2410 2970 3437 3748 3480 3792 3678 4142 3274 4174 3966 3337 3784 2494 3535 3321 3421 3390 3200 3061 2862 2423 1755 2318 1776 850 1308 1055 1869 1383 2430 1245 1344 3518 2901 2704 2059 1719 1865 595 725
1979 1679 1801 2036 1937 1757 1939 1640 986 1114 919 533 521 616 1157 1200 2351 1909 2650 2580 3037 3313 3278 3368 2878 2775 2808 2731 2940 3351 2960 2901 3282 3261 2856 3280 3488 3348 3070 2754 3884 3306 2548 2919 2176 2364 3145 3634 4051 3968 4096 4233 4120 4513 4001 4394 4508 3851 3458 3331 2878 3494 3521 3261 3266 2441 2738 2014 1798 2089 1675 1075 1291 1346 997 881 1518 1835 2273 1844 4187 2782 1451 1604 1449
2040 1444 1562 1689 2007 1746 1704 1588 1339 1809 2291 601 528 990 1779 2174 2935 2706 2745 2627 2894 3252 3410 3188 3045 2951 2979 2931 3053 2920 2800 2719 2590 2572 2856 2898 2519 2678 3324 2640 2774 2836 2718 3178 3539 3228 3020 3153 3537 3701 3924 4472 4588 4655 4608 4369 4584 4461 4325 3493 2760 3580 3497 3254 3110 2590 1597 1677 2136 2857 1646 1146 1758 1576 724 635 703 1657 1409 3400 2380 2988 3172 2856 998
1781 1822 1610 1409 1991 1629 1822 1691 1530 1783 1006 1198 878 1378 1552 2483 3153 2967 3055 2713 2663 3105 3250 2932 2939 2801 3055 3042 3078 3018 3021 2609 3198 3263 3457 2744 2699 2810 3152 3588 2767 3331 3191 3128 3230 2948 2892 3086 3699 3372 4287 4212 4340 4198 4218 4031 4576 4169 4485 4219 3666 2104 2950 3222 3558 2643 1900 1896 1609 2294 3344 1410 2444 1092 1755 1970 2699 2952 3129 2246 3167 2417 3445 3480 2105
1410 1674 2086 2435 2147 1529 1382 1888 1774 1286 1294 1224 1799 1488 1558 2506 2845 3218 3381 2844 2775 3320 3168 2644 2670 2513 2742 2767 2752 2840 2576 2482 2012 2193 1427 1725 2332 2273 2254 2003 2246 2828 2842 2834 2690 3300 3255 3180 2753 2764 4681 4288 4185 4257 4000 4096 4516 3878 4016 4386 3564 2356 3063 3262 2832 3147 2536 1244 1544 1575 2488 1900 2399 3428 2194 2164 4070 3493 3836 4628 3980 4408 4421 3808 3444
1450 1655 2210 1868 2082 2024 1647 1699 1518 1244 1195 1355 1755 1640 1920 2180 2558 3093 3642 3288 2877 2982 2985 2899 2803 2629 2718 2614 2664 2403 2157 1910 1935 1932 1743 1823 2197 2223 1821 2364 2122 1592 1963 1724 2723 3044 3583 3246 3427 3235 3699 3683 3801 3723 3858 4026 4764 3977 4014 4424 3825 3686 3590 3609 3274 2498 2047 2353 1798 1847 1989 2021 2119 2232 2442 2295 5842 3207 3121 3134 2783 3480 2979 3419 3983
936 1409 1562 1854 2020 2236 2302 1477 980 1005 1195 1406 1483 768 1328 1440 1593 2861 3135 3295 2996 2810 2773 3065 2962 2348 2172 2362 2376 2274 2194 2006 1735 2073 2020 1820 1438 1579 1444 1866 1530 2254 2793 3106 2846 2740 3196 3392 3619 3144 3506 3633 4006 3859 4198 4006 4693 4478 3797 4033 3979 3864 4016 3770 3751 3177 2373 2186 2508 2319 2867 2252 2571 1500 1802 1542 1994 3416 3210 3604 3311 4722 3056 4747 4210
843 1149 1286 1450 1443 1613 2176 1718 1791 1642 1391 1376 1431 1338 1120 975 1842 2026 2172 2880 2738 2405 2807 2856 2830 2533 2241 2958 3076 2635 2385 2040 1986 2301 1811 1502 1520 1474 1447 1074 1667 1581 1603 2786 2384 2253 2491 2606 2442 2429 2191 2591 3187 3255 3446 4065 4518 4478 3450 3117 3451 4004 4211 4058 3131 2918 2190 2550 2721 2345 2864 3023 2950 2958 2758 2706 3704 3403 3359 2866 2787 3435 3470 3300 4419
459 816 1209 1158 1494 1622 1955 2144 2017 1627 1856 1819 1487 1340 1224 1036 1196 1884 2275 2170 2422 1763 1468 2664 2755 2773 2748 3017 2770 2974 2110 1892 1450 1546 1754 1592 1481 1574 1253 816 1545 1430 1452 1684 2143 2162 2515 2726 2477 2596 2182 2576 3114 3022 3018 3854 4386 4863 4469 3843 3787 4065 3969 4057 4232 3770 2560 2632 3104 2705 2742 2964 3033 2735 2974 2423 2298 2966 2974 3085 3412 3987 3663 3778 3394
375 1069 942 1019 1047 1470 1484 1884 1557 1453 1640 1421 1235 1232 1272 1505 1524 1390 1303 1439 1588 1820 1725 1992 2520 2572 2123 2280 2585 2472 2543 1958 1322 1080 1310 1454 1448 1469 1563 1347 1223 1529 1462 1400 2008 1861 2191 2426 2274 2443 2288 2529 3115 3386 2634 3124 3956 4120 3835 2846 3437 4326 4166 4016 3950 3918 3882 3468 3365 3460 3101 2914 3020 2783 2562 2094 1977 1509 2482 2123 2436 2434 2804 3316 3706
407 487 543 684 1015 1381 1491 1354 1449 1735 1722 1378 1274 1190 1176 1126 1716 2077 2176 2494 2322 2372 1363 1450 2367 2583 2701 2129 2577 2904 2867 2176 1362 972 767 797 1019 1206 1309 1481 889 786 1334 1328 1928 1756 2305 2512 2287 2527 2741 2638 3543 2940 2684 2787 3167 3860 3743 3082 2535 3498 3897 3778 3856 3895 3588 3615 3566 3384 2984 2938 2540 2517 2505 2308 2111 2210 1785 1924 1995 2102 2315 2049 3576
189 252 480 476 940 968 1359 1347 1422 1584 2087 2066 1991 1592 1443 1443 1347 1343 1453 1386 1360 1679 1863 1404 1504 1998 2083 2104 2789 3006 2352 2258 1572 969 830 678 623 733 1284 1249 927 714 969 1301 1710 1721 2444 2698 2577 2959 3164 2410 3329 2887 2690 2734 3383 3531 3524 3683 3770 3423 3482 3815 3810 3598 3384 3578 3462 3530 3110 2822 2813 2964 2871 2468 2271 2402 2281 2495 3664 2626 2116 1943 2752
250 243 201 332 775 953 1001 1171 1338 1354 1424 1488 1866 1768 1738 1849 2011 1620 1178 943 1537 1748 1824 2033 1954 1831 1971 2646 2124 1869 1760 2316 1858 1020 753 650 497 490 937 754 896 639 653 1001 1512 2053 2291 2632 2036 2554 2834 2669 2584 2779 3090 2558 2631 2738 3231 3241 3224 3562 3588 3566 3364 3455 3465 3490 3414 3270 3287 3277 3286 3001 3341 2833 2570 2404 2590 2561 2305 2557 4099 3586 2672
242 312 347 318 603 916 937 1050 1107 1084 1171 1180 1119 1352 1559 1556 1429 1691 1939 2244 1971 1875 1552 1566 1838 1963 1688 2872 2821 2094 1086 1353 1951 1323 771 704 500 273 435 964 887 716 570 840 1292 1406 1860 2464 2048 2053 2368 2738 2654 2716 3149 3178 2635 2571 2862 2952 3303 3480 3140 3364 3267 3142 3244 3123 3017 3136 3113 3303 3122 3026 2872 2751 2853 3004 3124 2594 2489 2832 2683 2718 3389
214 296 343 393 494 726 873 990 970 884 931 850 797 814 987 1898 1626 1665 1848 1950 2285 2272 2164 2359 2157 2023 2293 2526 2842 2251 2152 1250 1283 1264 955 702 458 268 221 599 853 809 439 213 727 1239 1397 1956 2220 2115 2048 2570 2836 2591 2990 3351 3140 2863 2757 2777 2539 2895 2993 2995 2999 2829 2449 2738 2753 2705 3043 3118 3064 3120 2999 2970 3625 3697 3486 3161 3042 3673 3594 3502 3399
125 200 277 380 476 597 685 796 859 872 896 878 690 659 691 908 1332 1972 1690 1843 1948 2033 1652 1734 1921 2194 1900 1658 2237 2258 2160 1451 1487 1430 1698 826 511 429 476 577 993 906 561 176 71 709 1228 1239 1932 1810 2139 2281 2954 2788 3176 3634 3278 2879 2573 2854 2830 2593 2361 2396 2244 2435 2289 2136 2438 2451 1974 2555 2744 3047 3028 3097 3194 3690 3468 3268 3654 3341 3432 3652 3551
96 151 267 265 368 508 603 674 733 734 745 628 694 634 630 603 751 761 1741 1395 1729 1848 2064 1793 1724 1790 1579 1604 2060 2370 2054 1600 1484 2035 2384 1645 1064 640 711 637 1014 904 617 444 122 27 838 1028 1109 1702 1975 2037 2296 2732 2690 3264 3490 3394 3102 2378 2482 2461 2240 2015 1929 1601 1643 1836 1640 1448 1935 1708 2662 3225 2797 2818 2730 2918 3344 3394 3594 4091 4125 3801 3767
0 114 177 348 389 446 512 572 592 605 574 535 547 427 488 485 476 503 551 1830 1932 2161 2057 1770 1483 1611 1722 1916 1893 1906 1475 1884 2390 2336 1957 2025 1861 1641 402 581 581 704 915 888 576 326 201 1038 1174 1581 1866 1856 1806 1842 2340 2233 2622 3211 3282 2363 2122 2188 1937 1748 2050 1884 1620 1447 1169 1121 1021 2047 2240 3040 2765 2412 2154 2296 2601 3456 4719 4305 4437 4500 4332
0 0 0 65 159 382 470 450 488 476 296 468 410 296 394 304 234 339 420 481 920 2047 1807 1799 2083 1831 1994 2314 2693 2257 1283 1090 1155 1842 1941 1634 1093 1221 1050 1736 1281 940 964 1993 1231 900 448 210 1104 1160 1493 1321 1468 1119 1402 1872 2001 2418 2909 3054 2674 2596 2325 2271 2111 2255 2012 1469 1119 1174 1068 1598 2955 2335 2609 2114 1955 1845 1926 2082 1939 2180 3424 5406 4484
0 0 0 0 0 0 113 156 280 271 301 292 260 300 339 312 269 330 334 474 494 790 1381 1607 1380 1654 1704 1871 1916 2068 2204 1988 1615 1644 1603 1791 1803 1416 1318 1361 1904 1997 2457 1659 1597 1407 1179 697 319 720 1087 1180 1314 908 165 1343 1704 1934 2321 2973 2763 2336 1826 2069 1930 1638 1678 1417 1274 980 812 538 886 1981 2883 2630 1904 1798 1828 1847 1891 1963 1961 2340 3111
0 0 0 0 0 0 0 0 0 0 95 205 263 347 431 473 469 512 522 567 571 589 525 456 766 1121 1518 1773 1787 1816 1933 1550 1278 1656 1915 1871 1788 1584 1862 1696 1202 1188 1158 2052 2277 2367 1956 1615 1072 1181 810 1214 1470 1100 899 54 1208 1584 1854 2205 2477 2367 1768 1177 1245 1693 1643 1739 1741 1416 1144 842 314 1151 2600 3000 2923 2278 1699 1749 1733 1810 1838 1860 1878
0 0 0 0 0 0 0 0 0 0 0 0 0 36 129 196 296 374 457 522 577 583 606 547 485 470 577 682 859 986 1446 1779 1788 2200 1888 2150 1881 1906 2094 2061 1844 1566 1368 1179 1976 2157 2294 2895 2240 1839 2072 1872 1592 1372 1137 989 796 1140 1444 1735 2445 2018 1822 1338 993 1019 983 1505 1682 1580 1733 1458 1044 711 1541 3011 3618 3350 2812 2100 1969 1766 2454 2445 2063
0 0 0 0 0 0 0 0 0 0 0 0 0 0 0 0 0 0 34 159 286 350 346 417 536 562 553 563 574 706 858 1319 1671 1805 2023 2171 1679 1654 2000 2146 2125 1887 1578 1846 2373 1715 1829 2162 2519 2039 1894 1543 1456 978 1102 1140 1020 894 1067 1355 2154 1697 1048 819 863 856 1129 1046 1655 1695 1435 1397 1536 1543 1058 1281 3196 4580 4323 4166 3436 2898 2790 2874 2724
0 0 0 0 0 0 0 0 0 0 0 0 0 0 0 0 0 0 0 0 0 0 55 298 414 501 540 613 665 603 518 654 945 1184 1431 1780 1575 1562 1680 2026 2101 2372 1960 1963 2265 2306 2215 2076 2388 2236 2031 1673 1784 1492 1040 927 956 1084 976 950 1570 1952 1491 1006 638 572 817 1535 1611 1480 1622 1750 1704 1758 1794 1149 1506 3668 4923 4826 4703 4335 3784 3426 3139
0 0 0 0 0 0 0 0 0 0 0 0 0 0 0 0 0 0 0 0 0 0 0 0 0 158 302 476 531 645 565 492 519 997 1203 1471 1318 1159 1582 1964 1840 2090 1886 1871 2292 2573 2562 2282 2082 2050 1724 2767 2154 1637 1195 1068 860 1017 1014 1076 1625 2030 2082 1700 1157 1038 1012 1051 1010 1128 1755 1535 1538 2109 2262 1661 1120 761 2425 3870 4734 5002 5055 4764 4384
0 0 0 0 0 0 0 0 0 0 0 0 0 0 0 0 0 0 0 0 0 0 0 0 0 0 4 24 297 441 541 579 591 657 896 1482 1660 1419 1370 1889 1973 1991 2269 2163 2204 2164 2524 2317 1872 1873 1894 2264 2098 1855 1505 1213 1169 1170 1142 1151 1588 2065 2226 2129 1946 1743 1365 1115 1039 1180 1581 1428 1475 1565 1507 1651 1788 1421 1350 1951 2647 3272 3818 4170 4560
0 0 0 0 0 0 0 0 0 0 0 0 1 0 0 0 0 0 0 0 0 0 0 0 0 0 0 0 24 224 270 399 509 585 912 684 1522 1648 1810 1836 1643 1553 1986 2159 2270 2233 2236 2518 2425 1951 1868 2206 2109 2014 1694 1482 1256 1285 1334 1265 1890 2212 2330 2377 2264 2209 2062 1870 1860 1918 1990 1938 1732 1707 1430 1229 1278 1471 1642 1922 2171 2364 2459 2564 2687
0 0 0 0 0 0 0 0 0 0 0 0 0 0 0 0 0 0 0 0 0 0 0 0 0 0 0 0 0 19 53 89 208 274 554 924 741 644 870 960 1067 1077 1056 1386 1658 1853 2169 2500 2455 2440 2239 1909 1604 1750 1903 1552 1400 1353 1387 1459 1518 2350 2302 2372 2474 2487 2472 2409 2274 2292 2139 1550 1356 1160 1098 1234 1207 1163 1350 2033 2204 2135 2032 1929 1931
0 0 0 0 0 0 0 0 0 0 0 0 0 0 0 0 0 0 0 0 0 0 0 0 0 0 0 0 0 0 0 0 211 447 594 872 597 342 481 652 791 832 1056 1418 1506 1905 2115 2179 2374 2477 2679 2633 2197 2332 2886 1544 1519 1476 1381 1312 1451 2220 2477 2435 2554 2607 2502 2481 2656 2630 2325 2024 1692 1312 1128 1088 1105 1177 1268 1490 2158 2265 2071 1894 1776
0 0 0 0 0 0 0 0 0 0 0 0 0 0 0 0 0 0 0 0 1 0 0 0 0 0 0 0 0 0 0 0 52 349 794 747 955 1121 637 1 299 687 898 917 964 1092 1248 1637 2210 2278 2794 3147 3072 2686 2634 2094 1472 1231 1333 1355 1458 1646 2490 2660 2646 2772 2691 2537 2570 2607 2796 2542 2115 1815 1544 1379 1541 1597 1578 1449 1619 1708 1895 1929 1805
0 0 0 0 0 0 0 0 0 0 0 0 0 0 0 0 0 0 0 0 0 0 2 0 0 0 0 0 0 0 0 0 0 173 451 433 616 846 919 967 966 995 975 900 926 1242 1718 1993 2246 2715 2790 2985 3202 3852 2724 2446 2136 1570 1230 1261 1225 1364 1552 1796 2693 2568 2608 2707 2767 3018 2552 2488 2413 2316 2166 2100 2040 1988 2117 2152 2160 1992 1630 1796 1997
0 0 0 0 0 0 0 0 0 0 0 0 0 0 0 0 0 1 0 1 0 0 0 1 0 0 0 0 0 0 0 0 11 159 56 114 367 710 1054 1195 1098 957 757 661 800 1117 1578 1790 1912 2359 2613 2845 3340 3355 3170 2712 2530 2068 1526 1333 1317 1232 1244 1501 1635 2080 2267 2535 2609 2587 2160 2162 2375 2324 2263 2136 2002 1937 1939 2046 2119 2155 2223 2149 1720
0 0 0 0 0 0 0 0 0 0 0 0 0 0 0 0 0 0 0 0 3 2 4 1 0 0 0 0 0 0 1 2 0 0 5 81 381 587 925 1201 1629 1478 1108 1146 1382 1610 1514 1781 1936 2084 2569 2871 3013 3598 2939 2810 2359 2306 2110 1749 1519 1530 1524 1489 1506 1531 1619 2134 2629 2289 2101 2039 2129 2144 2098 2037 1957 1881 1917 2042 2222 2337 2410 2333 2152
0 0 0 0 0 0 0 0 0 0 0 0 0 0 0 0 0 2 0 0 0 10 10 5 0 0 0 0 0 0 0 0 0 0 14 249 107 88 358 1003 1068 1097 1223 1312 982 594 646 997 1401 1324 1674 1596 1945 2467 2969 2994 2371 2091 1914 1805 1710 1703 1642 1547 1526 1596 1557 1536 1562 1662 1723 1638 1698 1606 1655 1671 1692 1813 1940 1908 1857 2110 2314 2374 2229
0 0 0 0 0 0 0 0 0 0 0 0 0 0 0 2 4 3 3 6 3 5 8 7 8 0 0 0 0 0 0 0 0 0 0 0 0 5 131 414 548 382 402 339 153 174 245 428 828 1128 1293 1460 1560 1914 2157 2127 2620 2738 2212 1766 1728 1659 1658 1712 1753 1698 1660 1598 1431 1393 1393 1482 1571 1591 1558 1516 1538 1546 1472 1406 1618 1952 2162 2234 2280
0 0 0 0 0 0 0 0 0 0 0 0 0 0 0 0 0 0 1 3 2 2 0 4 1 1 1 0 0 1 2 0 0 0 0 0 0 0 0 26 22 6 13 41 26 62 54 46 274 461 880 1208 1376 1491 1881 2001 2111 2316 2610 2526 1824 1733 1652 1601 1540 1451 1460 1506 1493 1388 1287 1288 1331 1397 1458 1480 1505 1451 1220 1168 1355 1620 1826 2027 2162
0 0 0 0 0 2 4 2 1 0 0 0 0 0 2 3 1 2 6 6 6 4 7 3 8 7 5 9 7 4 0 0 0 0 0 0 0 0 0 0 0 4 14 0 0 0 0 0 0 284 473 774 1155 1426 1481 1545 1538 1594 1711 2224 2056 1681 1495 1369 1386 1473 1607 1641 1577 1439 1329 1191 1114 1124 1199 1305 1376 1354 1505 1444 1368 1441 1653 1818 1925
0 0 0 3 4 6 7 7 5 3 1 0 0 0 0 1 3 5 8 13 13 10 3 4 11 12 4 10 8 3 4 7 0 0 0 0 0 0 0 0 0 0 0 0 0 0 0 0 0 0 91 427 785 997 1115 1271 1338 1386 1446 1456 1451 1408 1297 1407 1585 1734 1721 1694 1683 1610 1440 1178 1022 959 977 1020 1050 893 1450 1942 1981 1779 1805 1906 1937
0 2 3 5 6 11 11 12 14 12 10 12 11 6 3 2 9 7 6 15 21 25 23 11 17 12 29 23 9 10 12 25 18 8 8 0 0 0 0 0 0 0 0 0 0 0 0 0 0 0 0 0 313 692 724 769 873 991 1171 1210 1414 1407 1144 1075 1500 1780 1813 1784 1808 1685 1495 1360 1281 1266 1275 1338 1342 1330 1335 1854 2152 1977 1837 1812 1831
Wind_Speed
nan nan nan nan nan nan nan nan nan nan 6 9 6 7 4 4 5 2 2 2 2 3 4 4 4 4 3 4 4 4 6 5 7 6 7 9 7 5 7 8 10 10 10 11 12 11 11 11 10 9 10 10 12 11 13 10 11 10 12 12 14 14 14 18 14 16 16 16 20 16 19 20 19 22 22 21 17 18 17 15 13 13 12 12 10
nan nan nan nan nan nan nan nan nan nan 7 7 6 6 3 5 4 2 2 2 2 3 4 5 5 4 4 3 4 4 5 5 6 6 8 8 4 4 7 7 9 9 10 11 11 11 10 10 10 11 9 9 9 11 10 9 10 12 10 11 14 12 15 16 12 16 17 15 17 18 18 21 19 21 22 21 13 15 14 12 12 8 8 8 9
nan nan nan nan nan nan nan nan nan nan nan nan 8 6 5 4 2 2 2 2 4 4 5 6 6 5 5 4 2 4 4 4 3 5 6 5 5 5 7 7 8 9 10 10 10 10 9 9 10 10 9 8 9 10 9 8 10 10 12 12 11 13 15 16 13 17 14 14 16 18 18 17 20 21 23 12 nan nan 13 12 10 7 6 8 8
nan nan nan nan nan nan nan nan nan nan 5 nan 8 7 5 4 2 2 2 3 5 6 6 6 6 6 7 4 5 4 3 3 2 4 6 6 6 5 7 8 9 8 8 9 9 9 9 9 10 8 9 8 9 9 8 9 9 9 8 12 10 13 14 12 14 13 14 12 15 17 16 14 17 18 15 15 11 10 nan 8 6 5 7 9 9
nan nan nan nan nan nan nan nan nan nan nan nan 7 7 4 6 3 2 3 5 5 7 5 7 8 6 6 5 5 4 5 3 2 5 5 7 4 7 7 9 9 8 8 8 8 8 8 9 8 8 8 9 9 8 8 8 8 8 8 7 10 14 11 12 11 11 11 14 12 15 14 14 16 15 13 15 16 12 nan 10 4 3 6 10 11
8 7 nan nan nan nan nan nan nan nan nan nan 5 7 6 5 4 3 4 7 5 6 6 7 7 6 5 4 5 2 1 3 3 3 6 6 7 6 6 8 9 8 8 9 6 7 7 8 7 7 7 9 9 8 9 8 7 7 5 9 9 12 12 11 9 13 9 11 11 10 9 10 13 17 12 13 13 14 7 4 7 2 4 9 8
7 9 8 nan nan nan nan nan nan nan nan nan 4 6 7 5 5 3 4 7 6 6 5 6 6 5 4 2 3 4 3 4 5 4 2 4 8 4 4 6 8 8 8 8 6 6 8 7 7 7 7 8 9 8 7 8 7 7 4 6 8 8 11 10 8 8 8 10 12 9 8 9 11 12 11 11 11 13 12 7 4 2 4 8 9
9 8 9 8 9 nan nan nan nan nan nan nan nan 6 7 6 6 4 6 6 7 5 5 5 5 3 3 4 4 4 3 5 5 5 6 4 5 5 4 5 6 7 6 7 6 7 8 8 7 9 7 7 7 8 8 8 5 6 5 5 4 8 8 10 10 8 6 8 8 9 5 8 10 10 9 8 7 8 11 8 5 4 8 8 9
7 11 9 9 10 nan nan nan nan nan nan nan nan 9 9 7 7 6 6 6 7 4 4 3 4 3 4 5 6 5 4 4 2 2 2 4 5 6 4 3 5 5 5 6 6 6 8 8 9 8 9 7 6 8 8 6 5 5 4 2 3 5 8 6 8 8 9 3 6 7 9 5 6 6 6 7 5 7 7 8 9 10 11 15 8
11 12 15 10 9 12 13 nan nan nan nan nan nan nan 9 7 7 6 7 7 7 5 3 3 3 4 5 6 6 5 7 6 4 3 2 2 5 4 3 1 3 4 4 5 6 6 7 7 9 9 9 7 9 8 6 4 5 4 4 3 3 4 5 3 5 5 8 7 3 3 6 8 7 7 5 6 5 5 8 6 7 10 11 11 13
14 17 6 8 10 12 14 13 12 16 nan nan nan nan 10 8 7 7 8 7 7 6 3 3 4 5 6 7 7 6 6 4 3 2 1 1 2 2 2 2 2 3 4 4 6 7 7 8 8 8 7 6 9 8 7 4 5 4 4 4 2 3 3 4 5 4 4 5 3 2 4 4 4 4 5 6 5 6 7 10 7 8 6 10 14
10 12 11 15 20 26 14 14 11 15 17 16 nan nan 12 10 9 7 7 7 8 6 4 4 6 7 7 8 7 7 6 6 3 2 2 1 1 2 2 2 3 1 4 4 5 8 5 8 8 5 4 6 6 6 5 6 6 4 3 2 2 3 3 4 4 2 2 1 4 1 4 5 2 6 4 1 4 5 7 10 12 11 9 9 8
11 17 18 17 21 22 19 24 19 14 16 15 12 14 13 12 11 8 8 7 8 8 4 5 6 8 8 8 7 7 7 7 4 3 2 3 2 2 1 2 2 1 2 2 6 6 5 6 6 5 3 6 4 6 4 5 5 3 3 3 3 2 3 3 3 4 3 2 3 3 2 3 1 4 5 4 1 4 4 9 12 11 7 6 7
16 18 20 20 21 21 18 17 17 17 11 11 10 14 15 13 12 9 10 8 9 8 6 6 6 9 9 9 8 8 7 8 7 4 2 4 3 3 1 1 3 1 1 1 4 5 5 6 3 6 5 4 3 4 3 2 2 4 2 3 5 2 2 2 3 4 5 4 5 6 7 5 4 2 1 5 2 2 4 7 9 10 12 9 7
15 17 18 19 19 19 15 15 18 18 17 10 8 14 18 17 15 12 11 9 9 9 8 6 8 9 10 9 8 8 8 8 8 6 5 4 3 3 4 2 3 1 2 1 2 3 3 3 4 3 5 3 3 3 2 2 2 1 4 3 3 3 2 2 2 5 4 2 2 3 6 7 6 7 1 3 6 2 3 4 4 9 10 11 6
16 18 17 14 16 17 15 20 22 20 17 15 11 13 16 17 17 14 13 10 10 10 9 8 9 10 9 9 8 8 9 9 9 8 7 5 4 5 4 5 3 3 3 4 2 5 3 3 1 3 2 3 2 2 2 1 1 2 1 2 3 3 4 3 2 3 5 2 2 1 3 4 5 2 4 5 7 7 6 4 5 3 5 8 6
18 16 18 19 18 18 20 21 24 22 20 15 15 15 14 18 18 16 14 12 11 10 10 9 10 10 10 8 8 8 7 7 6 5 3 5 7 6 5 3 4 5 3 2 3 3 3 4 3 3 1 1 1 1 1 0 1 1 2 2 2 2 5 4 3 2 2 3 1 1 1 1 4 5 5 5 5 6 7 6 4 5 5 5 6
24 21 20 16 18 20 22 22 21 17 14 15 21 13 13 15 17 15 15 13 12 11 10 10 10 11 11 9 7 8 8 6 7 6 7 8 8 8 6 6 4 3 2 4 4 4 4 4 3 2 4 1 1 0 1 1 1 1 2 1 2 0 3 4 3 2 2 2 1 1 4 1 1 3 2 2 2 3 2 5 4 4 4 5 5
28 25 23 22 22 22 22 22 22 16 11 15 15 6 10 12 14 15 14 13 13 12 11 11 11 11 11 10 8 7 8 8 9 10 10 10 7 7 6 8 4 6 5 7 6 5 5 5 4 3 4 3 2 2 2 2 2 1 2 2 2 3 2 2 3 2 3 3 1 1 3 2 1 0 1 2 2 4 2 4 5 5 4 5 6
28 25 27 26 27 24 17 14 19 18 15 17 12 14 12 11 14 14 13 17 15 12 13 12 10 10 11 12 10 9 8 9 10 11 9 9 9 9 7 7 7 7 6 7 7 5 6 6 5 4 4 3 3 2 1 2 3 3 2 2 3 4 4 3 2 4 3 3 3 1 2 2 2 4 4 5 5 5 3 0 3 5 6 7 7
24 25 27 25 23 21 13 10 14 20 18 17 16 14 16 13 13 14 14 15 12 11 12 14 13 11 11 12 11 10 7 8 7 9 10 10 10 10 9 8 10 8 8 6 6 5 6 6 6 5 4 5 3 3 3 4 4 4 5 5 6 3 4 4 3 1 2 3 5 4 2 3 2 2 3 3 3 5 4 3 4 4 3 5 5
33 31 28 28 25 24 22 15 17 17 16 16 13 16 14 16 17 17 13 13 15 15 15 16 14 14 11 12 10 10 8 8 6 8 8 9 11 10 12 10 9 10 9 8 7 5 6 6 5 7 4 6 6 4 4 5 4 4 3 3 4 5 4 4 5 3 3 3 5 6 5 3 3 2 3 1 2 1 6 4 3 2 4 4 5
37 34 31 33 31 28 25 24 22 24 24 18 17 20 19 19 19 22 24 25 25 27 28 25 17 16 15 13 12 10 9 7 6 6 6 6 9 10 11 11 9 9 9 9 10 6 8 7 6 7 8 6 8 6 4 5 5 6 4 2 4 5 4 4 4 4 4 5 4 6 5 4 3 4 2 2 2 2 3 4 5 5 4 3 6
38 37 35 35 34 28 24 22 24 30 31 30 25 23 27 25 21 18 21 25 24 23 22 21 25 19 14 14 14 12 8 7 6 6 6 6 7 9 11 10 10 9 10 9 10 9 9 9 7 8 9 7 7 7 6 4 6 7 6 4 4 5 6 5 5 5 5 6 6 6 4 4 3 3 5 4 3 4 4 6 6 6 6 4 7
41 39 36 36 36 33 28 22 20 27 32 30 31 30 28 29 25 22 23 24 27 27 25 24 22 20 22 23 18 11 9 8 6 7 5 6 6 7 11 10 10 9 10 11 10 11 11 11 8 8 9 8 6 6 7 6 5 5 6 6 4 4 6 7 6 7 6 7 7 6 5 4 4 3 5 5 5 4 5 7 6 7 8 9 10
43 42 40 39 37 34 32 30 26 27 30 34 34 32 31 30 28 26 28 31 30 28 27 27 27 22 18 18 22 23 15 8 8 7 6 6 6 7 9 11 10 10 11 12 12 10 12 12 10 9 8 9 8 7 7 6 6 6 5 5 5 5 4 5 6 6 7 7 7 7 6 6 5 4 4 5 6 4 5 5 7 8 9 10 10
45 44 42 40 40 39 37 35 34 33 32 33 35 36 35 32 31 32 32 33 36 36 35 33 29 27 27 23 22 21 20 15 13 12 10 10 7 6 7 10 11 11 10 9 13 13 13 13 13 11 9 9 9 8 8 7 6 6 7 6 5 6 6 6 6 5 5 6 6 7 8 7 7 7 6 6 7 6 6 6 7 9 11 11 10
47 46 46 44 42 42 40 39 40 37 36 36 37 38 40 39 38 37 38 37 35 36 37 34 31 30 29 27 28 28 29 30 27 19 15 12 10 10 10 11 13 11 10 10 nan 14 15 13 13 12 11 10 11 10 10 10 8 6 7 8 7 5 6 7 6 6 5 5 7 7 6 8 8 8 8 8 7 8 8 7 8 8 9 10 10
nan 49 48 47 46 44 43 44 43 43 41 38 35 33 33 35 35 37 36 36 35 33 33 32 30 32 31 32 35 35 32 27 26 26 21 16 15 15 14 13 14 12 10 9 10 nan 16 15 14 14 13 11 11 12 12 12 12 10 7 7 9 7 6 6 8 7 7 7 6 6 7 7 10 10 9 8 7 8 10 9 8 9 9 8 9
nan 51 50 49 48 47 47 47 46 46 44 41 35 31 29 29 28 31 35 34 31 34 33 30 29 29 30 34 37 38 33 27 24 25 30 33 26 17 13 14 13 13 14 13 12 11 12 17 16 16 15 14 12 13 15 15 15 12 11 8 8 9 7 6 7 8 7 8 6 6 5 5 8 12 12 11 9 6 7 10 11 10 9 9 9
nan nan nan nan 50 49 48 48 48 47 46 41 37 35 30 28 23 26 32 35 34 34 33 33 32 31 31 33 35 36 33 26 25 27 30 30 33 34 26 20 17 16 16 17 15 13 10 12 16 16 16 14 13 12 18 20 17 15 13 11 8 10 9 7 6 8 8 7 8 8 8 6 8 10 12 13 12 10 7 5 5 8 12 12 10
nan nan nan nan nan nan 50 50 50 49 47 43 41 39 37 33 30 28 30 33 34 35 37 38 36 34 34 35 34 33 33 32 31 32 31 35 34 31 32 34 30 22 20 18 17 16 16 13 12 15 15 14 13 12 18 21 20 18 15 12 11 9 9 10 8 6 7 8 7 7 7 6 9 11 13 13 12 11 10 8 7 6 5 6 10
nan nan nan nan nan nan nan nan nan nan nan 47 44 42 40 38 35 33 33 35 35 36 38 41 41 39 38 39 38 36 35 37 36 30 29 33 34 32 31 33 35 36 36 27 20 20 20 18 16 18 16 16 16 14 17 nan 20 20 17 14 11 11 9 8 9 8 8 8 10 10 7 8 8 8 12 14 14 11 10 10 8 7 5 5 4
nan nan nan nan nan nan nan nan nan nan nan nan nan nan 41 39 37 34 37 36 38 37 37 39 42 43 42 41 40 39 37 37 34 32 31 32 32 33 33 32 30 31 26 25 25 22 21 21 19 18 19 19 20 19 20 19 20 20 20 17 14 10 10 9 10 9 9 10 9 9 10 9 9 9 12 13 14 13 12 10 10 10 9 5 2
nan nan nan nan nan nan nan nan nan nan nan nan nan nan nan nan nan nan nan 39 41 40 37 36 38 42 44 43 42 40 38 39 38 35 33 33 31 31 31 31 30 28 24 22 23 25 27 27 25 22 21 19 16 23 22 24 23 24 23 22 18 12 9 11 11 11 12 11 13 11 10 10 11 13 10 10 14 15 14 12 11 9 8 7 6
nan nan nan nan nan nan nan nan nan nan nan nan nan nan nan nan nan nan nan nan nan nan nan 37 37 40 43 43 43 42 40 39 39 36 34 34 32 32 29 30 30 29 30 28 24 24 26 24 22 23 24 20 19 28 30 22 18 25 30 27 23 18 14 12 12 15 15 15 14 13 13 12 12 12 12 8 10 16 17 14 12 11 10 8 7
nan nan nan nan nan nan nan nan nan nan nan nan nan nan nan nan nan nan nan nan nan nan nan nan nan 41 41 42 42 42 41 40 39 38 36 33 32 31 28 27 27 28 28 26 24 22 22 21 19 21 21 21 21 21 22 26 23 17 26 28 27 24 20 16 14 14 15 16 16 16 15 14 12 13 13 12 11 14 16 15 14 13 12 10 9
nan nan nan nan nan nan nan nan nan nan nan nan nan nan nan nan nan nan nan nan nan nan nan nan nan nan nan nan 39 40 40 41 40 41 38 34 32 30 27 27 29 30 27 25 24 21 20 18 18 18 19 19 21 23 22 26 27 27 23 25 27 26 24 21 18 18 18 17 16 11 14 16 14 13 11 14 14 17 16 15 14 13 13 10 10
nan nan nan nan nan nan nan nan nan nan nan nan nan nan nan nan nan nan nan nan nan nan nan nan nan nan nan nan nan 38 37 39 41 43 41 39 38 35 32 32 32 32 31 27 25 23 20 19 17 16 17 20 20 23 26 26 28 29 28 26 27 28 25 22 21 20 21 21 21 18 13 15 16 15 12 14 16 20 18 17 17 16 13 9 11
nan nan nan nan nan nan nan nan nan nan nan nan nan nan nan nan nan nan nan nan nan nan nan nan nan nan nan nan nan nan nan nan 39 41 42 40 39 39 38 35 32 30 29 26 25 24 22 19 17 17 19 19 19 20 26 25 26 27 28 28 28 29 27 25 24 23 23 22 21 21 19 15 14 14 15 15 17 21 20 19 21 19 14 9 15
nan nan nan nan nan nan nan nan nan nan nan nan nan nan nan nan nan nan nan nan nan nan nan nan nan nan nan nan nan nan nan nan 40 40 40 40 40 39 37 37 34 32 30 28 25 23 20 20 18 17 19 20 19 19 25 28 25 26 26 27 28 26 27 27 27 26 25 23 24 22 21 19 18 18 18 18 19 21 22 22 22 19 14 13 19
nan nan nan nan nan nan nan nan nan nan nan nan nan nan nan nan nan nan nan nan nan nan nan nan nan nan nan nan nan nan nan nan nan 41 39 38 38 37 36 nan 33 33 33 31 29 26 22 19 19 19 20 21 21 20 22 26 25 26 26 26 27 24 25 28 27 27 27 27 26 27 26 23 21 21 19 19 19 22 25 27 21 15 11 13 18
nan nan nan nan nan nan nan nan nan nan nan nan nan nan nan nan nan nan nan nan nan nan nan nan nan nan nan nan nan nan nan nan nan 45 44 41 40 38 37 37 37 35 33 30 29 28 26 22 21 22 23 23 23 24 24 25 26 25 26 28 24 24 21 27 27 26 26 26 28 30 36 44 37 34 31 28 26 23 27 26 19 17 15 13 19
nan nan nan nan nan nan nan nan nan nan nan nan nan nan nan nan nan nan nan nan nan nan nan nan nan nan nan nan nan nan nan nan nan 53 nan 45 43 42 40 40 40 36 32 28 25 26 26 25 23 23 25 26 27 26 28 25 27 27 26 26 26 23 21 25 27 27 25 27 28 33 37 35 33 31 31 29 27 29 29 22 21 19 17 17 23
nan nan nan nan nan nan nan nan nan nan nan nan nan nan nan nan nan nan nan nan nan nan nan nan nan nan nan nan nan nan nan nan nan nan nan nan 47 46 44 44 43 40 35 31 28 28 27 27 26 25 26 28 29 29 28 29 29 30 28 27 26 25 23 23 24 26 27 27 32 38 33 27 27 29 27 26 27 25 24 24 22 21 21 28 24
nan nan nan nan nan nan nan nan nan nan nan nan nan nan nan nan nan nan nan nan nan nan nan nan nan nan nan nan nan nan nan nan nan nan nan 57 55 nan 49 48 47 44 42 41 39 36 34 33 34 32 30 29 28 28 29 30 33 31 32 30 28 27 25 25 25 24 21 20 22 24 26 26 25 25 26 26 28 29 25 22 22 24 28 26 24
nan nan nan nan nan nan nan nan nan nan nan nan nan nan nan nan nan nan nan nan nan nan nan nan nan nan nan nan nan nan nan nan nan nan nan nan nan nan 52 51 53 52 51 48 45 43 40 38 36 36 35 32 31 29 29 31 33 34 34 36 34 30 28 28 30 31 30 27 19 18 22 23 26 24 24 25 26 27 29 29 27 26 26 26 24
nan nan nan nan nan nan nan nan nan nan nan nan nan nan nan nan nan nan nan nan nan nan nan nan nan nan nan nan nan nan nan nan nan nan nan nan nan nan nan nan nan nan nan nan nan nan nan nan 39 37 36 34 32 33 33 33 32 33 34 38 38 36 35 36 35 35 36 35 31 26 23 25 25 25 26 28 28 28 25 24 27 26 26 26 24
nan nan nan nan nan nan nan nan nan nan nan nan nan nan nan nan nan nan nan nan nan nan nan nan nan nan nan nan nan nan nan nan nan nan nan nan nan nan nan nan nan nan nan nan nan nan nan nan nan 41 40 38 38 37 38 42 41 42 39 37 37 36 36 35 34 33 36 35 34 33 30 28 27 28 29 29 28 28 25 21 22 26 27 30 31
nan nan nan nan nan nan nan nan nan nan nan nan nan nan nan nan nan nan nan nan nan nan nan nan nan nan nan nan nan nan nan nan nan nan nan nan nan nan nan nan nan nan nan nan nan nan nan nan nan nan nan 41 40 39 40 38 34 31 30 31 31 31 32 33 32 34 36 32 31 31 29 29 29 31 33 32 30 28 25 23 22 24 26 29 32
nan nan nan nan nan nan nan nan nan nan nan nan nan nan nan nan nan nan nan nan nan nan nan nan nan nan nan nan nan nan nan nan nan nan nan nan nan nan nan nan nan nan nan nan nan nan nan nan nan nan nan nan 38 36 34 32 30 28 29 28 28 27 27 26 29 36 34 32 31 32 30 29 29 32 32 32 32 31 29 28 26 26 26 26 27
Wind_Direction
nan nan nan nan nan nan nan nan nan nan 254 274 286 288 295 262 263 284 201 235 178 156 145 143 127 128 118 93 109 93 100 84 76 72 78 78 75 65 87 96 102 113 122 122 119 113 110 112 112 111 101 103 107 111 109 90 93 94 97 102 92 94 106 94 89 97 104 111 111 106 104 105 102 105 101 100 100 107 102 102 112 110 106 112 118
nan nan nan nan nan nan nan nan nan nan 248 284 285 287 285 286 287 253 195 201 190 165 170 167 152 145 120 129 119 110 81 87 83 69 60 53 70 80 88 85 98 109 117 121 119 117 115 117 116 110 111 110 120 110 98 101 91 89 84 87 96 95 95 104 109 109 109 108 109 111 106 103 106 91 92 99 101 99 102 107 99 105 101 100 103
nan nan nan nan nan nan nan nan nan nan nan nan 289 301 293 278 253 223 193 191 190 198 173 185 158 160 153 155 113 101 110 124 89 74 95 68 49 60 75 87 91 99 106 115 118 113 116 114 110 112 111 107 98 95 101 102 91 88 83 97 86 82 96 94 101 101 108 113 114 115 114 112 114 115 106 100 nan nan 97 89 85 77 78 81 83
nan nan nan nan nan nan nan nan nan nan 267 nan 299 302 304 258 268 219 223 197 202 212 177 198 172 185 193 174 155 136 148 135 104 90 85 67 53 48 70 74 76 79 84 94 110 119 117 111 106 113 113 108 98 99 99 92 94 87 84 86 99 95 81 90 96 114 117 124 123 116 113 116 119 119 111 118 115 91 nan 97 108 126 128 120 95
nan nan nan nan nan nan nan nan nan nan nan nan 298 307 306 311 280 231 213 220 207 227 192 203 192 194 198 198 145 184 167 150 133 125 103 105 58 55 53 57 69 74 77 87 102 115 120 112 116 106 107 103 100 96 95 91 85 87 91 91 88 97 92 95 96 101 116 111 111 121 129 130 127 120 126 124 128 118 nan 144 154 120 111 114 125
270 271 nan nan nan nan nan nan nan nan nan nan 293 312 306 309 295 242 219 222 228 242 209 214 206 190 191 204 158 144 136 91 58 55 90 69 60 50 45 53 62 69 78 81 90 101 112 113 113 110 101 101 94 93 88 94 88 88 90 94 85 92 113 103 116 114 109 114 114 118 103 116 114 125 131 127 127 131 126 98 102 156 121 113 119
254 264 271 nan nan nan nan nan nan nan nan nan 274 296 295 296 288 258 237 231 234 244 226 216 223 190 172 197 153 180 161 151 154 154 115 124 138 78 68 58 64 60 58 77 78 91 98 108 105 103 98 97 101 103 106 93 91 92 86 107 115 115 107 116 95 103 125 116 104 97 137 140 145 137 132 136 140 135 133 85 106 100 88 102 102
223 264 267 270 267 nan nan nan nan nan nan nan nan 277 272 275 284 267 245 236 237 242 223 226 227 196 188 175 182 198 172 151 200 158 171 143 114 101 72 71 72 76 69 82 77 75 93 93 98 100 101 95 102 104 101 97 99 107 99 95 124 111 121 121 135 124 100 117 146 149 159 153 136 140 155 143 124 121 135 137 91 73 90 73 66
225 213 271 262 271 nan nan nan nan nan nan nan nan 247 254 262 270 263 256 245 245 262 221 222 217 204 185 194 210 171 207 183 221 172 180 150 128 108 88 79 83 87 80 72 79 78 83 88 89 117 106 105 98 96 95 100 110 104 114 116 108 126 110 134 132 123 129 163 144 164 147 125 125 153 142 140 131 139 130 138 142 146 155 152 146
227 227 210 222 253 266 266 nan nan nan nan nan nan nan 260 252 265 269 271 253 243 265 209 205 221 195 189 197 213 195 216 195 188 180 243 108 99 111 130 107 77 85 81 77 84 77 78 81 82 73 85 109 100 95 93 112 110 118 120 112 107 98 127 132 112 137 164 168 196 146 154 154 159 145 132 116 130 139 122 122 136 152 163 142 145
228 221 222 252 259 272 268 259 238 244 nan nan nan nan 260 260 261 264 272 259 258 264 229 191 196 193 198 197 213 203 227 238 182 215 178 319 126 145 126 94 82 82 66 83 76 71 71 76 70 71 79 68 93 103 107 79 78 94 99 117 126 120 129 124 138 192 175 153 184 146 127 130 131 144 141 155 162 135 135 142 132 139 156 158 152
271 276 246 242 231 218 233 266 252 227 243 249 nan nan 252 249 256 259 263 268 264 264 237 201 187 199 201 205 210 208 207 232 206 227 167 172 147 163 162 127 122 39 87 69 67 66 76 79 83 77 96 78 82 115 104 93 67 64 83 106 112 122 121 156 146 142 116 76 131 139 98 117 169 118 123 116 172 144 149 137 144 154 162 158 154
267 247 247 242 241 245 231 227 212 226 240 240 241 256 252 252 260 260 264 267 269 268 242 221 198 205 209 211 208 213 193 226 216 209 174 181 162 194 190 162 171 165 64 48 65 58 92 83 87 86 61 77 73 63 69 84 123 80 27 39 74 94 124 126 137 133 122 128 121 168 83 117 277 94 150 136 127 128 120 131 133 152 155 146 139
244 241 239 237 243 238 238 252 251 212 218 265 243 244 251 255 258 265 266 263 267 269 259 229 216 213 215 215 213 207 205 200 225 199 199 193 167 178 195 213 260 133 3 70 51 42 66 83 93 88 81 73 76 80 67 67 74 121 70 36 39 31 47 91 109 110 117 144 194 159 159 177 147 104 90 119 103 82 118 112 144 154 161 154 152
247 238 239 243 238 233 230 252 241 231 211 230 244 234 249 255 257 261 262 267 263 272 263 248 232 222 219 222 213 205 206 203 206 199 206 198 169 170 176 227 259 237 291 355 113 321 46 63 61 85 85 78 62 66 61 45 5 23 106 73 82 341 2 34 71 101 97 117 123 206 183 161 154 167 156 56 103 65 88 147 162 162 162 148 141
243 250 248 253 244 237 238 247 234 222 239 204 211 229 247 249 259 258 263 266 265 270 268 261 247 235 231 225 220 212 208 210 209 200 200 202 197 188 200 181 226 257 261 306 25 323 346 353 49 61 82 70 77 76 64 18 24 360 25 71 81 358 347 8 37 66 105 93 90 221 228 156 163 136 158 178 175 198 195 189 174 163 149 156 164
234 245 249 246 246 258 253 246 230 216 207 205 214 221 232 249 255 258 257 259 265 265 271 267 259 255 251 240 226 216 220 219 214 210 193 205 207 200 210 193 214 236 265 289 312 273 299 304 333 3 23 144 109 94 64 39 339 12 5 19 32 37 327 344 1 56 84 85 305 75 235 180 138 215 198 171 228 205 181 162 173 170 182 183 171
234 238 248 250 244 252 253 245 241 236 232 211 216 201 228 249 261 263 256 258 261 267 272 269 265 266 261 257 238 225 226 222 214 216 198 215 213 210 211 226 206 256 257 294 280 295 275 297 289 287 306 345 124 67 143 17 301 317 330 354 332 102 301 317 343 10 25 103 79 347 316 38 173 207 208 118 241 245 216 148 178 174 216 191 189
241 241 241 237 238 238 235 233 232 233 245 250 258 214 238 247 264 262 257 261 266 260 259 257 267 268 268 268 267 241 230 225 217 218 210 213 221 231 209 232 233 222 232 235 269 287 278 284 271 278 281 289 275 232 221 195 245 241 302 302 292 273 258 292 320 358 26 1 50 139 276 310 253 56 304 327 295 280 178 168 159 206 210 214 214
245 243 243 244 241 237 246 247 226 220 235 249 243 247 248 253 260 261 258 249 244 249 247 253 269 267 272 273 272 259 240 235 225 225 229 217 217 236 231 250 248 240 235 236 261 270 286 303 308 311 310 309 299 290 295 231 227 211 223 272 278 280 287 289 328 337 19 326 317 290 209 240 211 187 183 192 271 280 271 252 161 219 210 211 228
264 255 249 252 253 243 262 246 225 221 223 226 233 238 241 244 262 268 258 257 254 249 246 242 244 251 258 275 285 275 275 250 247 236 235 235 227 222 245 233 247 246 249 256 255 262 280 291 300 292 308 289 279 279 266 241 236 228 194 214 249 259 271 270 272 279 347 294 304 303 270 256 225 219 196 178 215 276 270 225 193 233 262 241 244
245 256 249 245 240 230 241 279 230 223 227 231 232 250 242 237 240 253 257 256 255 253 232 238 236 241 250 262 274 279 278 262 269 255 246 247 245 230 235 237 250 252 252 275 269 275 269 280 292 283 267 276 288 272 297 269 269 254 236 216 238 229 256 257 263 262 241 229 263 284 282 273 277 239 219 200 215 226 294 281 281 227 243 271 268
239 245 253 251 238 229 228 234 230 224 222 221 234 237 235 229 232 234 234 246 247 245 233 207 222 238 240 249 256 265 269 280 290 274 287 275 260 256 241 241 243 257 252 254 275 277 262 266 264 258 274 254 275 294 281 283 292 289 277 236 259 273 258 260 264 252 261 260 246 268 281 276 291 293 283 210 212 205 232 286 308 298 289 263 276
240 245 245 253 255 243 233 226 219 218 223 222 225 234 231 230 227 223 233 240 249 252 253 247 218 207 235 242 248 247 275 284 291 277 290 292 277 272 263 252 250 249 261 247 257 274 264 263 262 256 264 262 260 284 292 287 286 297 299 288 230 263 283 276 264 263 266 263 267 262 276 291 282 277 294 284 232 208 214 216 232 273 294 298 263
243 243 244 248 251 252 254 249 232 222 217 219 221 228 236 234 234 234 231 238 247 250 247 243 251 236 213 216 214 236 250 265 277 269 284 292 293 286 272 275 269 261 261 263 245 255 264 265 272 260 263 269 264 269 281 301 297 287 300 302 291 252 263 273 275 267 266 263 266 267 273 273 270 257 271 284 265 249 221 222 233 239 253 257 246
243 245 245 246 249 252 252 250 247 236 223 216 218 225 227 223 231 238 241 239 237 239 239 243 241 237 230 228 230 221 212 242 261 262 265 275 279 277 282 279 279 270 256 268 268 254 256 267 267 264 260 267 268 270 274 284 304 306 297 309 295 287 277 260 262 264 264 266 268 276 271 272 273 267 258 267 272 264 250 233 225 233 243 249 253
240 242 243 244 245 246 248 249 249 245 236 229 223 215 218 220 219 223 230 234 239 239 237 236 234 231 239 240 230 231 214 202 235 238 240 250 256 268 276 285 280 273 273 268 278 271 257 258 265 265 266 267 278 288 280 284 285 293 303 307 321 309 292 278 273 268 266 266 265 263 267 270 269 270 264 257 263 269 255 245 242 233 240 253 259
238 238 238 240 240 242 243 246 247 247 243 238 229 220 214 211 214 218 220 226 230 235 236 233 231 236 241 237 231 221 218 209 200 216 232 233 245 249 252 257 273 279 278 275 nan 281 274 265 264 266 261 265 273 284 283 284 289 289 291 300 309 305 309 303 294 284 283 276 274 276 272 273 276 267 268 262 260 263 266 249 250 244 235 237 243
nan 237 237 236 237 238 241 242 244 245 245 241 235 230 227 222 211 217 223 224 228 233 234 232 236 241 243 244 237 231 228 218 207 196 208 226 229 238 247 246 255 274 274 273 266 nan 277 280 271 264 267 270 279 286 285 285 289 295 286 296 304 311 311 296 299 300 288 276 262 259 273 275 273 293 299 285 270 267 264 266 257 252 254 251 241
nan 234 235 235 234 235 238 242 242 243 244 241 239 242 240 236 223 215 221 227 233 234 231 231 235 236 233 234 236 238 229 213 209 218 218 210 203 212 231 244 245 255 260 263 259 254 260 280 279 275 274 278 276 281 291 308 301 289 294 302 294 298 304 296 289 285 288 287 286 272 254 289 306 305 309 307 304 285 261 250 253 265 266 260 256
nan nan nan nan 234 233 235 238 243 243 242 243 242 245 245 246 236 222 223 228 233 237 232 227 227 232 232 230 232 233 235 228 222 226 230 228 217 198 193 213 233 245 247 255 264 262 254 252 276 279 279 280 280 283 299 308 308 309 297 291 286 283 294 297 291 276 274 270 268 278 280 264 277 301 303 314 310 310 307 283 249 242 245 247 251
nan nan nan nan nan nan 232 235 238 242 242 240 242 243 244 246 252 243 235 234 237 238 234 230 225 226 228 229 233 236 238 234 225 219 226 232 224 216 211 197 195 211 237 240 248 254 250 243 244 266 279 276 272 282 293 305 306 308 301 284 284 283 280 289 294 287 278 280 272 257 258 273 282 288 292 298 305 315 315 310 300 276 258 254 252
nan nan nan nan nan nan nan nan nan nan nan 242 241 242 243 242 243 241 240 238 237 237 238 234 228 225 225 224 225 230 234 238 232 226 229 231 233 235 227 220 212 207 202 206 225 240 245 246 238 232 244 267 270 281 286 nan 303 303 304 290 273 272 279 274 281 290 285 274 273 278 263 242 232 274 296 296 299 302 314 326 320 315 294 278 261
nan nan nan nan nan nan nan nan nan nan nan nan nan nan 243 244 242 242 244 240 236 237 238 237 233 230 229 227 226 226 229 233 237 235 235 236 235 236 244 246 241 231 224 219 209 219 234 245 250 249 241 237 247 276 290 292 297 299 297 291 270 264 257 260 263 269 276 280 281 271 269 266 259 239 246 263 277 291 288 283 275 268 263 266 282
nan nan nan nan nan nan nan nan nan nan nan nan nan nan nan nan nan nan nan 243 239 236 236 236 237 234 232 231 229 229 230 231 233 233 232 240 242 238 237 243 251 256 251 241 238 236 233 227 227 236 247 246 251 263 288 298 300 299 298 289 273 273 256 246 249 256 257 259 263 273 272 271 265 265 261 253 262 272 275 273 275 277 275 270 269
nan nan nan nan nan nan nan nan nan nan nan nan nan nan nan nan nan nan nan nan nan nan nan 235 235 236 236 236 233 231 231 233 235 235 235 239 238 235 236 241 243 243 242 242 243 246 242 235 234 233 237 242 243 245 263 262 281 300 303 285 283 279 267 252 244 241 246 252 257 259 257 257 262 265 274 289 270 263 269 276 275 273 269 270 273
nan nan nan nan nan nan nan nan nan nan nan nan nan nan nan nan nan nan nan nan nan nan nan nan nan 234 234 235 237 236 234 234 237 238 236 236 233 231 230 239 245 248 252 257 259 259 261 262 256 252 246 245 247 243 246 267 277 278 285 285 291 286 282 277 267 260 251 248 248 254 259 257 256 258 269 283 282 274 257 263 266 268 266 263 263
nan nan nan nan nan nan nan nan nan nan nan nan nan nan nan nan nan nan nan nan nan nan nan nan nan nan nan nan 236 238 238 237 238 238 235 233 231 233 230 234 233 233 240 245 249 253 260 264 266 264 265 262 258 261 268 269 275 279 280 280 284 285 285 286 283 278 273 266 262 254 250 256 258 259 266 272 274 270 259 259 255 250 247 247 251
nan nan nan nan nan nan nan nan nan nan nan nan nan nan nan nan nan nan nan nan nan nan nan nan nan nan nan nan nan 240 240 240 242 242 238 232 229 230 234 235 232 230 229 232 237 236 238 244 247 250 260 263 255 263 276 271 276 283 286 278 276 278 280 282 281 277 275 272 269 268 266 260 257 255 267 269 271 269 259 258 257 250 241 235 248
nan nan nan nan nan nan nan nan nan nan nan nan nan nan nan nan nan nan nan nan nan nan nan nan nan nan nan nan nan nan nan nan 248 246 244 239 235 233 231 231 229 228 232 232 232 232 228 231 240 251 255 259 258 259 272 278 277 281 288 278 276 276 279 280 277 274 271 269 267 265 268 272 271 265 263 265 270 277 265 256 254 251 243 236 245
nan nan nan nan nan nan nan nan nan nan nan nan nan nan nan nan nan nan nan nan nan nan nan nan nan nan nan nan nan nan nan nan 247 248 246 243 241 238 236 232 230 234 234 236 239 240 236 234 239 241 247 254 258 260 269 283 279 276 277 276 267 274 274 274 275 275 273 270 266 264 260 266 273 273 271 272 273 277 276 264 260 256 254 241 242
nan nan nan nan nan nan nan nan nan nan nan nan nan nan nan nan nan nan nan nan nan nan nan nan nan nan nan nan nan nan nan nan nan 248 250 247 246 244 244 nan 238 235 232 234 235 235 235 240 242 243 244 248 254 267 260 276 282 281 280 284 269 268 268 267 270 274 274 270 267 261 259 262 272 274 272 273 279 281 283 271 269 276 267 251 247
nan nan nan nan nan nan nan nan nan nan nan nan nan nan nan nan nan nan nan nan nan nan nan nan nan nan nan nan nan nan nan nan nan 249 249 248 248 245 243 244 242 240 238 236 235 233 234 238 245 252 255 254 253 258 274 270 281 284 285 285 288 275 260 253 263 271 272 270 268 266 257 255 265 268 271 270 269 271 270 275 289 282 270 260 252
nan nan nan nan nan nan nan nan nan nan nan nan nan nan nan nan nan nan nan nan nan nan nan nan nan nan nan nan nan nan nan nan nan 252 nan 249 250 250 248 247 249 249 246 245 239 233 233 237 238 245 252 255 256 257 268 277 273 283 282 285 284 284 279 268 259 257 260 262 261 261 266 267 260 259 257 259 267 276 279 290 287 287 282 270 259
nan nan nan nan nan nan nan nan nan nan nan nan nan nan nan nan nan nan nan nan nan nan nan nan nan nan nan nan nan nan nan nan nan nan nan nan 253 254 253 252 253 253 253 252 245 234 231 235 237 240 244 248 252 255 256 270 280 281 285 285 285 286 287 287 275 265 259 257 256 259 259 262 267 266 268 264 263 271 288 294 296 293 286 271 270
nan nan nan nan nan nan nan nan nan nan nan nan nan nan nan nan nan nan nan nan nan nan nan nan nan nan nan nan nan nan nan nan nan nan nan 253 253 nan 252 253 255 255 253 248 243 239 235 232 230 232 237 240 239 243 249 256 265 270 272 280 285 287 288 290 292 275 263 244 235 240 244 247 248 254 258 259 256 256 260 277 290 290 275 277 276
nan nan nan nan nan nan nan nan nan nan nan nan nan nan nan nan nan nan nan nan nan nan nan nan nan nan nan nan nan nan nan nan nan nan nan nan nan nan 253 251 252 252 251 250 247 244 240 237 235 233 231 233 238 245 250 252 256 262 266 270 272 273 277 274 271 275 275 274 270 267 264 258 254 254 256 254 254 253 256 264 262 266 274 276 273
nan nan nan nan nan nan nan nan nan nan nan nan nan nan nan nan nan nan nan nan nan nan nan nan nan nan nan nan nan nan nan nan nan nan nan nan nan nan nan nan nan nan nan nan nan nan nan nan 241 239 238 237 239 245 249 254 258 262 263 265 268 269 272 275 274 273 275 274 271 263 261 263 259 257 258 254 255 256 258 263 268 269 272 275 273
nan nan nan nan nan nan nan nan nan nan nan nan nan nan nan nan nan nan nan nan nan nan nan nan nan nan nan nan nan nan nan nan nan nan nan nan nan nan nan nan nan nan nan nan nan nan nan nan nan 248 244 242 243 244 248 246 244 244 251 262 268 269 269 270 274 275 269 270 270 268 264 261 261 262 261 256 251 252 256 262 272 272 271 272 272
nan nan nan nan nan nan nan nan nan nan nan nan nan nan nan nan nan nan nan nan nan nan nan nan nan nan nan nan nan nan nan nan nan nan nan nan nan nan nan nan nan nan nan nan nan nan nan nan nan nan nan 252 249 247 236 225 225 233 245 249 253 256 261 262 267 272 274 270 268 265 263 261 260 260 260 261 258 253 249 253 257 268 271 272 276
nan nan nan nan nan nan nan nan nan nan nan nan nan nan nan nan nan nan nan nan nan nan nan nan nan nan nan nan nan nan nan nan nan nan nan nan nan nan nan nan nan nan nan nan nan nan nan nan nan nan nan nan 255 248 245 245 240 236 242 254 259 263 266 265 260 259 267 275 275 270 264 261 260 260 260 261 260 256 252 247 243 240 245 255 264